Year,Month,Day,Hour,Minute,Value (Times are PST for temperature in C)
2017,12,10,00,00,4.70
2017,12,10,00,01,4.80
2017,12,10,00,02,4.80
2017,12,10,00,03,4.80
2017,12,10,00,04,4.80
2017,12,10,00,05,4.80
2017,12,10,00,06,4.80
2017,12,10,00,07,4.80
2017,12,10,00,08,4.80
2017,12,10,00,09,4.80
2017,12,10,00,10,4.80
2017,12,10,00,11,4.80
2017,12,10,00,12,4.80
2017,12,10,00,13,4.80
2017,12,10,00,14,4.80
2017,12,10,00,15,4.80
2017,12,10,00,16,4.80
2017,12,10,00,17,4.80
2017,12,10,00,18,4.80
2017,12,10,00,19,4.80
2017,12,10,00,20,4.80
2017,12,10,00,21,4.80
2017,12,10,00,22,4.80
2017,12,10,00,23,4.90
2017,12,10,00,24,4.90
2017,12,10,00,25,4.90
2017,12,10,00,26,4.90
2017,12,10,00,27,4.90
2017,12,10,00,28,5.00
2017,12,10,00,29,5.00
2017,12,10,00,30,5.00
2017,12,10,00,31,5.00
2017,12,10,00,32,4.90
2017,12,10,00,33,4.80
2017,12,10,00,34,4.80
2017,12,10,00,35,4.80
2017,12,10,00,36,4.80
2017,12,10,00,37,4.70
2017,12,10,00,38,4.60
2017,12,10,00,39,4.60
2017,12,10,00,40,4.60
2017,12,10,00,41,4.60
2017,12,10,00,42,4.50
2017,12,10,00,43,4.40
2017,12,10,00,44,4.40
2017,12,10,00,45,4.30
2017,12,10,00,46,4.30
2017,12,10,00,47,4.20
2017,12,10,00,48,4.20
2017,12,10,00,49,4.20
2017,12,10,00,50,4.10
2017,12,10,00,51,4.10
2017,12,10,00,52,4.00
2017,12,10,00,53,4.00
2017,12,10,00,54,3.90
2017,12,10,00,55,3.80
2017,12,10,00,56,3.80
2017,12,10,00,57,3.80
2017,12,10,00,58,3.70
2017,12,10,00,59,3.70
2017,12,10,01,00,3.70
2017,12,10,01,01,3.60
2017,12,10,01,02,3.60
2017,12,10,01,03,3.60
2017,12,10,01,04,3.60
2017,12,10,01,05,3.60
2017,12,10,01,06,3.60
2017,12,10,01,07,3.50
2017,12,10,01,08,3.50
2017,12,10,01,09,3.50
2017,12,10,01,10,3.40
2017,12,10,01,11,3.40
2017,12,10,01,12,3.40
2017,12,10,01,13,3.40
2017,12,10,01,14,3.40
2017,12,10,01,15,3.30
2017,12,10,01,16,3.40
2017,12,10,01,17,3.40
2017,12,10,01,18,3.40
2017,12,10,01,19,3.40
2017,12,10,01,20,3.50
2017,12,10,01,21,3.50
2017,12,10,01,22,3.50
2017,12,10,01,23,3.50
2017,12,10,01,24,3.50
2017,12,10,01,25,3.50
2017,12,10,01,26,3.50
2017,12,10,01,27,3.40
2017,12,10,01,28,3.40
2017,12,10,01,29,3.30
2017,12,10,01,30,3.30
2017,12,10,01,31,3.20
2017,12,10,01,32,3.20
2017,12,10,01,33,3.10
2017,12,10,01,34,3.10
2017,12,10,01,35,3.10
2017,12,10,01,36,3.10
2017,12,10,01,37,3.10
2017,12,10,01,38,3.10
2017,12,10,01,39,3.10
2017,12,10,01,40,3.10
2017,12,10,01,41,3.20
2017,12,10,01,42,3.20
2017,12,10,01,43,3.20
2017,12,10,01,44,3.20
2017,12,10,01,45,3.20
2017,12,10,01,46,3.20
2017,12,10,01,47,3.20
2017,12,10,01,48,3.20
2017,12,10,01,49,3.20
2017,12,10,01,50,3.20
2017,12,10,01,51,3.20
2017,12,10,01,52,3.20
2017,12,10,01,53,3.10
2017,12,10,01,54,3.10
2017,12,10,01,55,3.00
2017,12,10,01,56,3.00
2017,12,10,01,57,2.90
2017,12,10,01,58,2.90
2017,12,10,01,59,2.80
2017,12,10,02,00,2.70
2017,12,10,02,01,2.70
2017,12,10,02,02,2.70
2017,12,10,02,03,2.70
2017,12,10,02,04,2.60
2017,12,10,02,05,2.60
2017,12,10,02,06,2.60
2017,12,10,02,07,2.60
2017,12,10,02,08,2.60
2017,12,10,02,09,2.60
2017,12,10,02,10,2.60
2017,12,10,02,11,2.60
2017,12,10,02,12,2.60
2017,12,10,02,13,2.60
2017,12,10,02,14,2.70
2017,12,10,02,15,2.70
2017,12,10,02,16,2.70
2017,12,10,02,17,2.60
2017,12,10,02,18,2.60
2017,12,10,02,19,2.60
2017,12,10,02,20,2.60
2017,12,10,02,21,2.60
2017,12,10,02,22,2.60
2017,12,10,02,23,2.60
2017,12,10,02,24,2.60
2017,12,10,02,25,2.60
2017,12,10,02,26,2.70
2017,12,10,02,27,2.70
2017,12,10,02,28,2.70
2017,12,10,02,29,2.70
2017,12,10,02,30,2.70
2017,12,10,02,31,2.70
2017,12,10,02,32,2.70
2017,12,10,02,33,2.70
2017,12,10,02,34,2.70
2017,12,10,02,35,2.70
2017,12,10,02,36,2.70
2017,12,10,02,37,2.70
2017,12,10,02,38,2.80
2017,12,10,02,39,2.80
2017,12,10,02,40,2.80
2017,12,10,02,41,2.80
2017,12,10,02,42,2.80
2017,12,10,02,43,2.80
2017,12,10,02,44,2.80
2017,12,10,02,45,2.80
2017,12,10,02,46,2.80
2017,12,10,02,47,2.80
2017,12,10,02,48,2.80
2017,12,10,02,49,2.80
2017,12,10,02,50,2.80
2017,12,10,02,51,2.80
2017,12,10,02,52,2.90
2017,12,10,02,53,2.90
2017,12,10,02,54,2.90
2017,12,10,02,55,2.90
2017,12,10,02,56,2.90
2017,12,10,02,57,2.90
2017,12,10,02,58,2.90
2017,12,10,02,59,2.90
2017,12,10,03,00,2.90
2017,12,10,03,01,2.90
2017,12,10,03,02,2.90
2017,12,10,03,03,2.90
2017,12,10,03,04,2.90
2017,12,10,03,05,2.90
2017,12,10,03,06,2.90
2017,12,10,03,07,2.90
2017,12,10,03,08,2.90
2017,12,10,03,09,3.00
2017,12,10,03,10,3.00
2017,12,10,03,11,3.00
2017,12,10,03,12,3.10
2017,12,10,03,13,3.10
2017,12,10,03,14,3.10
2017,12,10,03,15,3.10
2017,12,10,03,16,3.10
2017,12,10,03,17,3.10
2017,12,10,03,18,3.10
2017,12,10,03,19,3.10
2017,12,10,03,20,3.10
2017,12,10,03,21,3.20
2017,12,10,03,22,3.20
2017,12,10,03,23,3.30
2017,12,10,03,24,3.30
2017,12,10,03,25,3.30
2017,12,10,03,26,3.40
2017,12,10,03,27,3.40
2017,12,10,03,28,3.40
2017,12,10,03,29,3.40
2017,12,10,03,30,3.50
2017,12,10,03,31,3.50
2017,12,10,03,32,3.50
2017,12,10,03,33,3.50
2017,12,10,03,34,3.60
2017,12,10,03,35,3.60
2017,12,10,03,36,3.60
2017,12,10,03,37,3.60
2017,12,10,03,38,3.60
2017,12,10,03,39,3.70
2017,12,10,03,40,3.60
2017,12,10,03,41,3.70
2017,12,10,03,42,3.70
2017,12,10,03,43,3.70
2017,12,10,03,44,3.70
2017,12,10,03,45,3.70
2017,12,10,03,46,3.70
2017,12,10,03,47,3.80
2017,12,10,03,48,3.80
2017,12,10,03,49,3.80
2017,12,10,03,50,3.80
2017,12,10,03,51,3.90
2017,12,10,03,52,3.90
2017,12,10,03,53,3.90
2017,12,10,03,54,3.90
2017,12,10,03,55,3.90
2017,12,10,03,56,3.90
2017,12,10,03,57,3.90
2017,12,10,03,58,3.90
2017,12,10,03,59,3.90
2017,12,10,04,00,3.90
2017,12,10,04,01,3.90
2017,12,10,04,02,4.00
2017,12,10,04,03,4.00
2017,12,10,04,04,4.00
2017,12,10,04,05,4.00
2017,12,10,04,06,4.00
2017,12,10,04,07,4.00
2017,12,10,04,08,4.00
2017,12,10,04,09,4.00
2017,12,10,04,10,4.00
2017,12,10,04,11,4.00
2017,12,10,04,12,4.00
2017,12,10,04,13,4.00
2017,12,10,04,14,3.90
2017,12,10,04,15,3.90
2017,12,10,04,16,3.80
2017,12,10,04,17,3.80
2017,12,10,04,18,3.80
2017,12,10,04,19,3.70
2017,12,10,04,20,3.70
2017,12,10,04,21,3.70
2017,12,10,04,22,3.70
2017,12,10,04,23,3.70
2017,12,10,04,24,3.70
2017,12,10,04,25,3.70
2017,12,10,04,26,3.70
2017,12,10,04,27,3.70
2017,12,10,04,28,3.70
2017,12,10,04,29,3.70
2017,12,10,04,30,3.70
2017,12,10,04,31,3.70
2017,12,10,04,32,3.70
2017,12,10,04,33,3.70
2017,12,10,04,34,3.80
2017,12,10,04,35,3.80
2017,12,10,04,36,3.90
2017,12,10,04,37,4.00
2017,12,10,04,38,4.00
2017,12,10,04,39,4.10
2017,12,10,04,40,4.10
2017,12,10,04,41,4.20
2017,12,10,04,42,4.10
2017,12,10,04,43,4.10
2017,12,10,04,44,4.10
2017,12,10,04,45,4.10
2017,12,10,04,46,4.20
2017,12,10,04,47,4.20
2017,12,10,04,48,4.20
2017,12,10,04,49,4.20
2017,12,10,04,50,4.20
2017,12,10,04,51,4.30
2017,12,10,04,52,4.30
2017,12,10,04,53,4.30
2017,12,10,04,54,4.30
2017,12,10,04,55,4.40
2017,12,10,04,56,4.40
2017,12,10,04,57,4.50
2017,12,10,04,58,4.50
2017,12,10,04,59,4.60
2017,12,10,05,00,4.60
2017,12,10,05,01,4.60
2017,12,10,05,02,4.60
2017,12,10,05,03,4.60
2017,12,10,05,04,4.60
2017,12,10,05,05,4.60
2017,12,10,05,06,4.60
2017,12,10,05,07,4.60
2017,12,10,05,08,4.60
2017,12,10,05,09,4.70
2017,12,10,05,10,4.70
2017,12,10,05,11,4.70
2017,12,10,05,12,4.70
2017,12,10,05,13,4.70
2017,12,10,05,14,4.70
2017,12,10,05,15,4.80
2017,12,10,05,16,4.80
2017,12,10,05,17,4.80
2017,12,10,05,18,4.80
2017,12,10,05,19,4.90
2017,12,10,05,20,4.90
2017,12,10,05,21,5.00
2017,12,10,05,22,5.10
2017,12,10,05,23,5.20
2017,12,10,05,24,5.30
2017,12,10,05,25,5.30
2017,12,10,05,26,5.30
2017,12,10,05,27,5.40
2017,12,10,05,28,5.40
2017,12,10,05,29,5.40
2017,12,10,05,30,5.50
2017,12,10,05,31,5.50
2017,12,10,05,32,5.50
2017,12,10,05,33,5.50
2017,12,10,05,34,5.40
2017,12,10,05,35,5.40
2017,12,10,05,36,5.40
2017,12,10,05,37,5.40
2017,12,10,05,38,5.30
2017,12,10,05,39,5.30
2017,12,10,05,40,5.30
2017,12,10,05,41,5.30
2017,12,10,05,42,5.30
2017,12,10,05,43,5.20
2017,12,10,05,44,5.20
2017,12,10,05,45,5.20
2017,12,10,05,46,5.20
2017,12,10,05,47,5.20
2017,12,10,05,48,5.20
2017,12,10,05,49,5.20
2017,12,10,05,50,5.20
2017,12,10,05,51,5.20
2017,12,10,05,52,5.30
2017,12,10,05,53,5.30
2017,12,10,05,54,5.30
2017,12,10,05,55,5.30
2017,12,10,05,56,5.30
2017,12,10,05,57,5.40
2017,12,10,05,58,5.40
2017,12,10,05,59,5.40
2017,12,10,06,00,5.40
2017,12,10,06,01,5.40
2017,12,10,06,02,5.40
2017,12,10,06,03,5.40
2017,12,10,06,04,5.40
2017,12,10,06,05,5.40
2017,12,10,06,06,5.40
2017,12,10,06,07,5.40
2017,12,10,06,08,5.40
2017,12,10,06,09,5.40
2017,12,10,06,10,5.40
2017,12,10,06,11,5.40
2017,12,10,06,12,5.50
2017,12,10,06,13,5.50
2017,12,10,06,14,5.60
2017,12,10,06,15,5.60
2017,12,10,06,16,5.70
2017,12,10,06,17,5.80
2017,12,10,06,18,6.00
2017,12,10,06,19,6.10
2017,12,10,06,20,6.10
2017,12,10,06,21,6.10
2017,12,10,06,22,6.10
2017,12,10,06,23,6.00
2017,12,10,06,24,6.00
2017,12,10,06,25,6.00
2017,12,10,06,26,5.90
2017,12,10,06,27,5.90
2017,12,10,06,28,5.90
2017,12,10,06,29,5.90
2017,12,10,06,30,5.90
2017,12,10,06,31,5.90
2017,12,10,06,32,5.90
2017,12,10,06,33,5.90
2017,12,10,06,34,5.90
2017,12,10,06,35,6.00
2017,12,10,06,36,6.10
2017,12,10,06,37,6.10
2017,12,10,06,38,6.10
2017,12,10,06,39,6.10
2017,12,10,06,40,6.10
2017,12,10,06,41,6.00
2017,12,10,06,42,6.00
2017,12,10,06,43,6.00
2017,12,10,06,44,6.00
2017,12,10,06,45,5.90
2017,12,10,06,46,5.90
2017,12,10,06,47,5.90
2017,12,10,06,48,5.90
2017,12,10,06,49,5.90
2017,12,10,06,50,5.90
2017,12,10,06,51,5.80
2017,12,10,06,52,5.80
2017,12,10,06,53,5.80
2017,12,10,06,54,5.80
2017,12,10,06,55,5.80
2017,12,10,06,56,5.80
2017,12,10,06,57,5.80
2017,12,10,06,58,5.90
2017,12,10,06,59,5.90
2017,12,10,07,00,5.90
2017,12,10,07,01,5.90
2017,12,10,07,02,5.90
2017,12,10,07,03,5.90
2017,12,10,07,04,6.00
2017,12,10,07,05,5.90
2017,12,10,07,06,5.90
2017,12,10,07,07,5.90
2017,12,10,07,08,5.90
2017,12,10,07,09,5.90
2017,12,10,07,10,5.90
2017,12,10,07,11,5.90
2017,12,10,07,12,5.80
2017,12,10,07,13,5.80
2017,12,10,07,14,5.80
2017,12,10,07,15,5.80
2017,12,10,07,16,5.80
2017,12,10,07,17,5.80
2017,12,10,07,18,5.80
2017,12,10,07,19,5.80
2017,12,10,07,20,5.80
2017,12,10,07,21,5.80
2017,12,10,07,22,5.80
2017,12,10,07,23,5.80
2017,12,10,07,24,5.80
2017,12,10,07,25,5.80
2017,12,10,07,26,5.80
2017,12,10,07,27,5.80
2017,12,10,07,28,5.80
2017,12,10,07,29,5.70
2017,12,10,07,30,5.70
2017,12,10,07,31,5.80
2017,12,10,07,32,5.70
2017,12,10,07,33,5.70
2017,12,10,07,34,5.70
2017,12,10,07,35,5.70
2017,12,10,07,36,5.80
2017,12,10,07,37,5.80
2017,12,10,07,38,5.80
2017,12,10,07,39,5.80
2017,12,10,07,40,5.80
2017,12,10,07,41,5.80
2017,12,10,07,42,5.80
2017,12,10,07,43,5.80
2017,12,10,07,44,5.80
2017,12,10,07,45,5.80
2017,12,10,07,46,5.80
2017,12,10,07,47,5.80
2017,12,10,07,48,5.80
2017,12,10,07,49,5.80
2017,12,10,07,50,5.90
2017,12,10,07,51,5.90
2017,12,10,07,52,5.90
2017,12,10,07,53,5.90
2017,12,10,07,54,5.90
2017,12,10,07,55,5.90
2017,12,10,07,56,5.90
2017,12,10,07,57,5.90
2017,12,10,07,58,6.00
2017,12,10,07,59,6.00
2017,12,10,08,00,6.00
2017,12,10,08,01,6.00
2017,12,10,08,02,6.00
2017,12,10,08,03,6.00
2017,12,10,08,04,6.10
2017,12,10,08,05,6.10
2017,12,10,08,06,6.20
2017,12,10,08,07,6.20
2017,12,10,08,08,6.20
2017,12,10,08,09,6.30
2017,12,10,08,10,6.30
2017,12,10,08,11,6.30
2017,12,10,08,12,6.30
2017,12,10,08,13,6.40
2017,12,10,08,14,6.50
2017,12,10,08,15,6.50
2017,12,10,08,16,6.60
2017,12,10,08,17,6.60
2017,12,10,08,18,6.70
2017,12,10,08,19,6.70
2017,12,10,08,20,6.70
2017,12,10,08,21,6.70
2017,12,10,08,22,6.70
2017,12,10,08,23,6.70
2017,12,10,08,24,6.80
2017,12,10,08,25,6.90
2017,12,10,08,26,7.00
2017,12,10,08,27,7.10
2017,12,10,08,28,7.10
2017,12,10,08,29,7.20
2017,12,10,08,30,7.30
2017,12,10,08,31,7.30
2017,12,10,08,32,7.30
2017,12,10,08,33,7.40
2017,12,10,08,34,7.40
2017,12,10,08,35,7.40
2017,12,10,08,36,7.40
2017,12,10,08,37,7.50
2017,12,10,08,38,7.50
2017,12,10,08,39,7.50
2017,12,10,08,40,7.60
2017,12,10,08,41,7.60
2017,12,10,08,42,7.60
2017,12,10,08,43,7.70
2017,12,10,08,44,7.70
2017,12,10,08,45,7.70
2017,12,10,08,46,7.70
2017,12,10,08,47,7.70
2017,12,10,08,48,7.80
2017,12,10,08,49,7.80
2017,12,10,08,50,7.80
2017,12,10,08,51,7.80
2017,12,10,08,52,7.80
2017,12,10,08,53,7.80
2017,12,10,08,54,7.80
2017,12,10,08,55,7.80
2017,12,10,08,56,7.80
2017,12,10,08,57,7.80
2017,12,10,08,58,7.80
2017,12,10,08,59,7.80
2017,12,10,09,00,7.80
2017,12,10,09,01,7.80
2017,12,10,09,02,7.80
2017,12,10,09,03,7.80
2017,12,10,09,04,7.80
2017,12,10,09,05,7.80
2017,12,10,09,06,7.80
2017,12,10,09,07,7.80
2017,12,10,09,08,7.80
2017,12,10,09,09,7.90
2017,12,10,09,10,7.90
2017,12,10,09,11,7.90
2017,12,10,09,12,7.90
2017,12,10,09,13,7.90
2017,12,10,09,14,7.90
2017,12,10,09,15,7.90
2017,12,10,09,16,7.90
2017,12,10,09,17,7.90
2017,12,10,09,18,7.90
2017,12,10,09,19,7.90
2017,12,10,09,20,7.90
2017,12,10,09,21,7.90
2017,12,10,09,22,7.90
2017,12,10,09,23,8.00
2017,12,10,09,24,8.00
2017,12,10,09,25,8.00
2017,12,10,09,26,8.10
2017,12,10,09,27,8.10
2017,12,10,09,28,8.20
2017,12,10,09,29,8.20
2017,12,10,09,30,8.30
2017,12,10,09,31,8.30
2017,12,10,09,32,8.30
2017,12,10,09,33,8.30
2017,12,10,09,34,8.30
2017,12,10,09,35,8.30
2017,12,10,09,36,8.30
2017,12,10,09,37,8.30
2017,12,10,09,38,8.30
2017,12,10,09,39,8.30
2017,12,10,09,40,8.30
2017,12,10,09,41,8.30
2017,12,10,09,42,8.30
2017,12,10,09,43,8.40
2017,12,10,09,44,8.40
2017,12,10,09,45,8.40
2017,12,10,09,46,8.50
2017,12,10,09,47,8.50
2017,12,10,09,48,8.60
2017,12,10,09,49,8.60
2017,12,10,09,50,8.60
2017,12,10,09,51,8.60
2017,12,10,09,52,8.70
2017,12,10,09,53,8.70
2017,12,10,09,54,8.80
2017,12,10,09,55,8.80
2017,12,10,09,56,8.80
2017,12,10,09,57,8.90
2017,12,10,09,58,8.90
2017,12,10,09,59,8.90
2017,12,10,10,00,9.00
2017,12,10,10,01,9.10
2017,12,10,10,02,9.10
2017,12,10,10,03,9.20
2017,12,10,10,04,9.30
2017,12,10,10,05,9.40
2017,12,10,10,06,9.40
2017,12,10,10,07,9.50
2017,12,10,10,08,9.60
2017,12,10,10,09,9.60
2017,12,10,10,10,9.70
2017,12,10,10,11,9.70
2017,12,10,10,12,9.70
2017,12,10,10,13,9.80
2017,12,10,10,14,9.80
2017,12,10,10,15,9.90
2017,12,10,10,16,9.90
2017,12,10,10,17,10.00
2017,12,10,10,18,10.10
2017,12,10,10,19,10.10
2017,12,10,10,20,10.10
2017,12,10,10,21,10.10
2017,12,10,10,22,10.10
2017,12,10,10,23,10.10
2017,12,10,10,24,10.10
2017,12,10,10,25,10.20
2017,12,10,10,26,10.20
2017,12,10,10,27,10.20
2017,12,10,10,28,10.20
2017,12,10,10,29,10.30
2017,12,10,10,30,10.30
2017,12,10,10,31,10.30
2017,12,10,10,32,10.30
2017,12,10,10,33,10.40
2017,12,10,10,34,10.40
2017,12,10,10,35,10.50
2017,12,10,10,36,10.60
2017,12,10,10,37,10.60
2017,12,10,10,38,10.60
2017,12,10,10,39,10.60
2017,12,10,10,40,10.70
2017,12,10,10,41,10.70
2017,12,10,10,42,10.70
2017,12,10,10,43,10.70
2017,12,10,10,44,10.70
2017,12,10,10,45,10.70
2017,12,10,10,46,10.70
2017,12,10,10,47,10.70
2017,12,10,10,48,10.80
2017,12,10,10,49,10.80
2017,12,10,10,50,10.90
2017,12,10,10,51,10.90
2017,12,10,10,52,11.00
2017,12,10,10,53,11.10
2017,12,10,10,54,11.10
2017,12,10,10,55,11.10
2017,12,10,10,56,11.20
2017,12,10,10,57,11.20
2017,12,10,10,58,11.20
2017,12,10,10,59,11.20
2017,12,10,11,00,11.20
2017,12,10,11,01,11.20
2017,12,10,11,02,11.20
2017,12,10,11,03,11.20
2017,12,10,11,04,11.20
2017,12,10,11,05,11.20
2017,12,10,11,06,11.30
2017,12,10,11,07,11.30
2017,12,10,11,08,11.30
2017,12,10,11,09,11.40
2017,12,10,11,10,11.40
2017,12,10,11,11,11.40
2017,12,10,11,12,11.40
2017,12,10,11,13,11.40
2017,12,10,11,14,11.40
2017,12,10,11,15,11.30
2017,12,10,11,16,11.30
2017,12,10,11,17,11.20
2017,12,10,11,18,11.20
2017,12,10,11,19,11.20
2017,12,10,11,20,11.10
2017,12,10,11,21,11.10
2017,12,10,11,22,11.10
2017,12,10,11,23,11.10
2017,12,10,11,24,11.10
2017,12,10,11,25,11.10
2017,12,10,11,26,11.10
2017,12,10,11,27,11.10
2017,12,10,11,28,11.10
2017,12,10,11,29,11.10
2017,12,10,11,30,11.10
2017,12,10,11,31,11.10
2017,12,10,11,32,11.00
2017,12,10,11,33,11.10
2017,12,10,11,34,11.10
2017,12,10,11,35,11.10
2017,12,10,11,36,11.10
2017,12,10,11,37,11.20
2017,12,10,11,38,11.20
2017,12,10,11,39,11.20
2017,12,10,11,40,11.10
2017,12,10,11,41,11.10
2017,12,10,11,42,11.20
2017,12,10,11,43,11.10
2017,12,10,11,44,11.10
2017,12,10,11,45,11.10
2017,12,10,11,46,11.10
2017,12,10,11,47,11.10
2017,12,10,11,48,11.10
2017,12,10,11,49,11.20
2017,12,10,11,50,11.20
2017,12,10,11,51,11.20
2017,12,10,11,52,11.20
2017,12,10,11,53,11.20
2017,12,10,11,54,11.20
2017,12,10,11,55,11.20
2017,12,10,11,56,11.20
2017,12,10,11,57,11.20
2017,12,10,11,58,11.20
2017,12,10,11,59,11.20
2017,12,10,12,00,11.20
2017,12,10,12,01,11.20
2017,12,10,12,02,11.20
2017,12,10,12,03,11.20
2017,12,10,12,04,11.20
2017,12,10,12,05,11.20
2017,12,10,12,06,11.20
2017,12,10,12,07,11.20
2017,12,10,12,08,11.30
2017,12,10,12,09,11.30
2017,12,10,12,10,11.20
2017,12,10,12,11,11.20
2017,12,10,12,12,11.20
2017,12,10,12,13,11.20
2017,12,10,12,14,11.20
2017,12,10,12,15,11.20
2017,12,10,12,16,11.20
2017,12,10,12,17,11.20
2017,12,10,12,18,11.20
2017,12,10,12,19,11.20
2017,12,10,12,20,11.20
2017,12,10,12,21,11.20
2017,12,10,12,22,11.20
2017,12,10,12,23,11.20
2017,12,10,12,24,11.20
2017,12,10,12,25,11.20
2017,12,10,12,26,11.20
2017,12,10,12,27,11.20
2017,12,10,12,28,11.20
2017,12,10,12,29,11.30
2017,12,10,12,30,11.30
2017,12,10,12,31,11.20
2017,12,10,12,32,11.20
2017,12,10,12,33,11.20
2017,12,10,12,34,11.20
2017,12,10,12,35,11.20
2017,12,10,12,36,11.20
2017,12,10,12,37,11.20
2017,12,10,12,38,11.20
2017,12,10,12,39,11.20
2017,12,10,12,40,11.20
2017,12,10,12,41,11.20
2017,12,10,12,42,11.20
2017,12,10,12,43,11.20
2017,12,10,12,44,11.20
2017,12,10,12,45,11.20
2017,12,10,12,46,11.20
2017,12,10,12,47,11.20
2017,12,10,12,48,11.20
2017,12,10,12,49,11.30
2017,12,10,12,50,11.30
2017,12,10,12,51,11.30
2017,12,10,12,52,11.30
2017,12,10,12,53,11.30
2017,12,10,12,54,11.30
2017,12,10,12,55,11.30
2017,12,10,12,56,11.30
2017,12,10,12,57,11.30
2017,12,10,12,58,11.30
2017,12,10,12,59,11.30
2017,12,10,13,00,11.30
2017,12,10,13,01,11.30
2017,12,10,13,02,11.30
2017,12,10,13,03,11.30
2017,12,10,13,04,11.30
2017,12,10,13,05,11.30
2017,12,10,13,06,11.30
2017,12,10,13,07,11.30
2017,12,10,13,08,11.30
2017,12,10,13,09,11.40
2017,12,10,13,10,11.40
2017,12,10,13,11,11.40
2017,12,10,13,12,11.40
2017,12,10,13,13,11.40
2017,12,10,13,14,11.40
2017,12,10,13,15,11.40
2017,12,10,13,16,11.30
2017,12,10,13,17,11.30
2017,12,10,13,18,11.30
2017,12,10,13,19,11.30
2017,12,10,13,20,11.30
2017,12,10,13,21,11.30
2017,12,10,13,22,11.30
2017,12,10,13,23,11.30
2017,12,10,13,24,11.30
2017,12,10,13,25,11.40
2017,12,10,13,26,11.40
2017,12,10,13,27,11.40
2017,12,10,13,28,11.40
2017,12,10,13,29,11.40
2017,12,10,13,30,11.40
2017,12,10,13,31,11.40
2017,12,10,13,32,11.50
2017,12,10,13,33,11.50
2017,12,10,13,34,11.60
2017,12,10,13,35,11.60
2017,12,10,13,36,11.60
2017,12,10,13,37,11.60
2017,12,10,13,38,11.60
2017,12,10,13,39,11.60
2017,12,10,13,40,11.60
2017,12,10,13,41,11.60
2017,12,10,13,42,11.50
2017,12,10,13,43,11.50
2017,12,10,13,44,11.50
2017,12,10,13,45,11.50
2017,12,10,13,46,11.50
2017,12,10,13,47,11.50
2017,12,10,13,48,11.60
2017,12,10,13,49,11.60
2017,12,10,13,50,11.60
2017,12,10,13,51,11.70
2017,12,10,13,52,11.70
2017,12,10,13,53,11.70
2017,12,10,13,54,11.80
2017,12,10,13,55,11.70
2017,12,10,13,56,11.70
2017,12,10,13,57,11.70
2017,12,10,13,58,11.70
2017,12,10,13,59,11.70
2017,12,10,14,00,11.70
2017,12,10,14,01,11.80
2017,12,10,14,02,11.80
2017,12,10,14,03,11.80
2017,12,10,14,04,11.80
2017,12,10,14,05,11.80
2017,12,10,14,06,11.80
2017,12,10,14,07,11.80
2017,12,10,14,08,11.80
2017,12,10,14,09,11.70
2017,12,10,14,10,11.70
2017,12,10,14,11,11.60
2017,12,10,14,12,11.60
2017,12,10,14,13,11.50
2017,12,10,14,14,11.50
2017,12,10,14,15,11.50
2017,12,10,14,16,11.40
2017,12,10,14,17,11.40
2017,12,10,14,18,11.40
2017,12,10,14,19,11.40
2017,12,10,14,20,11.40
2017,12,10,14,21,11.40
2017,12,10,14,22,11.30
2017,12,10,14,23,11.30
2017,12,10,14,24,11.30
2017,12,10,14,25,11.30
2017,12,10,14,26,11.30
2017,12,10,14,27,11.30
2017,12,10,14,28,11.20
2017,12,10,14,29,11.20
2017,12,10,14,30,11.20
2017,12,10,14,31,11.10
2017,12,10,14,32,11.10
2017,12,10,14,33,11.00
2017,12,10,14,34,11.00
2017,12,10,14,35,10.90
2017,12,10,14,36,10.90
2017,12,10,14,37,10.90
2017,12,10,14,38,10.90
2017,12,10,14,39,10.80
2017,12,10,14,40,10.80
2017,12,10,14,41,10.80
2017,12,10,14,42,10.80
2017,12,10,14,43,10.80
2017,12,10,14,44,10.80
2017,12,10,14,45,10.80
2017,12,10,14,46,10.70
2017,12,10,14,47,10.70
2017,12,10,14,48,10.70
2017,12,10,14,49,10.70
2017,12,10,14,50,10.70
2017,12,10,14,51,10.70
2017,12,10,14,52,10.70
2017,12,10,14,53,10.70
2017,12,10,14,54,10.60
2017,12,10,14,55,10.60
2017,12,10,14,56,10.60
2017,12,10,14,57,10.60
2017,12,10,14,58,10.50
2017,12,10,14,59,10.50
2017,12,10,15,00,10.50
2017,12,10,15,01,10.40
2017,12,10,15,02,10.40
2017,12,10,15,03,10.40
2017,12,10,15,04,10.40
2017,12,10,15,05,10.40
2017,12,10,15,06,10.40
2017,12,10,15,07,10.40
2017,12,10,15,08,10.40
2017,12,10,15,09,10.40
2017,12,10,15,10,10.30
2017,12,10,15,11,10.30
2017,12,10,15,12,10.30
2017,12,10,15,13,10.30
2017,12,10,15,14,10.30
2017,12,10,15,15,10.30
2017,12,10,15,16,10.30
2017,12,10,15,17,10.30
2017,12,10,15,18,10.30
2017,12,10,15,19,10.30
2017,12,10,15,20,10.30
2017,12,10,15,21,10.30
2017,12,10,15,22,10.30
2017,12,10,15,23,10.30
2017,12,10,15,24,10.20
2017,12,10,15,25,10.20
2017,12,10,15,26,10.20
2017,12,10,15,27,10.20
2017,12,10,15,28,10.20
2017,12,10,15,29,10.20
2017,12,10,15,30,10.20
2017,12,10,15,31,10.10
2017,12,10,15,32,10.10
2017,12,10,15,33,10.10
2017,12,10,15,34,10.10
2017,12,10,15,35,10.10
2017,12,10,15,36,10.00
2017,12,10,15,37,10.00
2017,12,10,15,38,9.90
2017,12,10,15,39,9.90
2017,12,10,15,40,9.90
2017,12,10,15,41,9.80
2017,12,10,15,42,9.80
2017,12,10,15,43,9.80
2017,12,10,15,44,9.80
2017,12,10,15,45,9.70
2017,12,10,15,46,9.70
2017,12,10,15,47,9.70
2017,12,10,15,48,9.70
2017,12,10,15,49,9.60
2017,12,10,15,50,9.60
2017,12,10,15,51,9.50
2017,12,10,15,52,9.50
2017,12,10,15,53,9.50
2017,12,10,15,54,9.40
2017,12,10,15,55,9.40
2017,12,10,15,56,9.40
2017,12,10,15,57,9.30
2017,12,10,15,58,9.30
2017,12,10,15,59,9.30
2017,12,10,16,00,9.30
2017,12,10,16,01,9.30
2017,12,10,16,02,9.20
2017,12,10,16,03,9.20
2017,12,10,16,04,9.20
2017,12,10,16,05,9.20
2017,12,10,16,06,9.20
2017,12,10,16,07,9.20
2017,12,10,16,08,9.10
2017,12,10,16,09,9.10
2017,12,10,16,10,9.10
2017,12,10,16,11,9.10
2017,12,10,16,12,9.10
2017,12,10,16,13,9.00
2017,12,10,16,14,9.00
2017,12,10,16,15,9.00
2017,12,10,16,16,8.90
2017,12,10,16,17,8.90
2017,12,10,16,18,8.90
2017,12,10,16,19,8.90
2017,12,10,16,20,8.80
2017,12,10,16,21,8.80
2017,12,10,16,22,8.80
2017,12,10,16,23,8.80
2017,12,10,16,24,8.70
2017,12,10,16,25,8.70
2017,12,10,16,26,8.70
2017,12,10,16,27,8.60
2017,12,10,16,28,8.60
2017,12,10,16,29,8.50
2017,12,10,16,30,8.50
2017,12,10,16,31,8.50
2017,12,10,16,32,8.40
2017,12,10,16,33,8.40
2017,12,10,16,34,8.30
2017,12,10,16,35,8.30
2017,12,10,16,36,8.30
2017,12,10,16,37,8.30
2017,12,10,16,38,8.30
2017,12,10,16,39,8.30
2017,12,10,16,40,8.20
2017,12,10,16,41,8.20
2017,12,10,16,42,8.20
2017,12,10,16,43,8.10
2017,12,10,16,44,8.10
2017,12,10,16,45,8.00
2017,12,10,16,46,8.00
2017,12,10,16,47,8.00
2017,12,10,16,48,8.00
2017,12,10,16,49,7.90
2017,12,10,16,50,7.90
2017,12,10,16,51,7.90
2017,12,10,16,52,7.90
2017,12,10,16,53,7.80
2017,12,10,16,54,7.80
2017,12,10,16,55,7.80
2017,12,10,16,56,7.70
2017,12,10,16,57,7.70
2017,12,10,16,58,7.70
2017,12,10,16,59,7.70
2017,12,10,17,00,7.70
2017,12,10,17,01,7.70
2017,12,10,17,02,7.60
2017,12,10,17,03,7.60
2017,12,10,17,04,7.60
2017,12,10,17,05,7.60
2017,12,10,17,06,7.60
2017,12,10,17,07,7.60
2017,12,10,17,08,7.60
2017,12,10,17,09,7.60
2017,12,10,17,10,7.60
2017,12,10,17,11,7.60
2017,12,10,17,12,7.50
2017,12,10,17,13,7.50
2017,12,10,17,14,7.50
2017,12,10,17,15,7.50
2017,12,10,17,16,7.40
2017,12,10,17,17,7.40
2017,12,10,17,18,7.40
2017,12,10,17,19,7.40
2017,12,10,17,20,7.40
2017,12,10,17,21,7.40
2017,12,10,17,22,7.30
2017,12,10,17,23,7.30
2017,12,10,17,24,7.30
2017,12,10,17,25,7.30
2017,12,10,17,26,7.30
2017,12,10,17,27,7.30
2017,12,10,17,28,7.20
2017,12,10,17,29,7.20
2017,12,10,17,30,7.20
2017,12,10,17,31,7.20
2017,12,10,17,32,7.10
2017,12,10,17,33,7.10
2017,12,10,17,34,7.10
2017,12,10,17,35,7.10
2017,12,10,17,36,7.00
2017,12,10,17,37,7.00
2017,12,10,17,38,6.90
2017,12,10,17,39,6.90
2017,12,10,17,40,6.90
2017,12,10,17,41,6.90
2017,12,10,17,42,6.80
2017,12,10,17,43,6.80
2017,12,10,17,44,6.80
2017,12,10,17,45,6.80
2017,12,10,17,46,6.70
2017,12,10,17,47,6.70
2017,12,10,17,48,6.70
2017,12,10,17,49,6.60
2017,12,10,17,50,6.60
2017,12,10,17,51,6.60
2017,12,10,17,52,6.50